sat.trackr.live / text

‹ back to catalog

STARLINK-36841

NORAD 67960 · 2026-037AE

PAYLOAD ACTIVE UNKNOWN

§ Identity

Operator
Country
US
Launch date
2026-02-24
Launch site
AFETR
Launch vehicle
Mass (kg)
RCS (m²)

Purposes: comms

External: N2YO · Heavens-Above · Gunter

§ Orbital elements

Epoch: 2026-05-25T04:43:32.310336Z

Period
94.27 min
Inclination
43.0016°
Eccentricity
0.0001415
Mean motion
15.27582147 rev/d
Perigee alt
482.1 km
Apogee alt
484.0 km
Semi-major
6,861.2 km
B*
7.0537e-4
RAAN
118.4583°
Arg perigee
270.0900°
Mean anomaly
89.9789°
Rev number
1,504

§ Raw data

STARLINK-368411 67960U 26037AE  26145.19690174  .00019200  00000+0  70537-3 0  99972 67960  43.0016 118.4583 0001415 270.0900  89.9789 15.27582147 15045

JSON: /api/v1/satellites/67960 · /tle

For live sub-satellite position, see the globe view (requires WebGL).

§ Visibility from observer

Set your observer location to see the next 7 days of passes ≥ 10°. The values pass through the URL so the page stays shareable.

No JS? Fill the form by hand. The geolocation button needs JavaScript.